JCSAT-15                
1 41903U 16082A   19265.57299181 -.00000359  00000-0  00000+0 0  9996
2 41903   0.0129 204.0982 0001426 357.2095 116.1934  1.00270751 10111
STAR ONE D1             
1 41904U 16082B   19265.48923175 -.00000219  00000-0  00000+0 0  9999
2 41904   0.0189 128.9944 0002146 352.1775 332.0190  1.00271996 10125
ARIANE 5 R/B            
1 41905U 16082C   19264.26647434  .00000650  00000-0  13182-3 0  9993
2 41905   6.3115 149.7200 7234646 308.8662   6.4738  2.34836995 23265
ARIANE 5 DEB [SYLDA]    
1 41906U 16082D   19265.24283623  .00177196 -44542-6  61039-2 0  9998
2 41906   6.1958  48.2539 6618618 156.0264 259.9578  3.20801817 27804